Regional Weather Roundup
Issued by NWS

Home | Current Version | Previous Version | Graphics & Text | Print | Product List | Glossary On
Versions: 1 2 3 4 5 6 7 8 9 10 11 12 13 14 15 16 17 18 19 20 21 22 23 24 25 26 27 28 29 30 31 32 33 34 35 36 37 38 39 40 41 42 43 44 45 46 47 48 49 50
756
ASUS45 KTFX 270410
RWRMT
MONTANA REGIONAL WEATHER ROUNDUP
NATIONAL WEATHER SERVICE GREAT FALLS MT
1000 PM MDT SUN MAR 26 2017

NOTE: "FAIR" INDICATES FEW OR NO CLOUDS BELOW 12000 FEET WITH NO
SIGNIFICANT WEATHER AND/OR OBSTRUCTIONS TO VISIBILITY.

MTZ001>007-043-270500-
WEST OF THE DIVIDE

CITY           SKY/WX    TMP DP  RH WIND       PRES   REMARKS
KALISPELL      CLOUDY    47  30  51 W3        29.80S
MISSOULA       CLOUDY    45  35  68 CALM      29.84S
BUTTE          CLOUDY    38  30  73 CALM      29.86S
MULLAN PASS    FOG       30  30 100 VRB5      29.78S VSB 1
ANACONDA         N/A     39  28  65 SE8       29.85S
DEER LODGE       N/A     39  34  81 E5        29.88R
EUREKA           N/A     46  30  53 CALM      29.80S
HAMILTON         N/A     45  30  57 S5        29.83S
PLAINS           N/A     45  35  67 SW2       29.84S
RONAN            N/A     46  33  60 SE7       29.89R
$$

MTZ008-052>055-270500-
SOUTHWEST MONTANA

CITY           SKY/WX    TMP DP  RH WIND       PRES   REMARKS
BOZEMAN        CLOUDY    48  25  40 SW18G25   29.85R
DILLON         CLOUDY    37  31  78 N3        29.85F
W YELLOWSTONE  LGT SNOW  32  32 100 SE3       29.94F
ENNIS          CLOUDY    41  27  56 S10G16    29.93S
THREE FORKS      N/A     47  47 100 S14       29.87R
TWIN BRIDGES     N/A     40  30  67 CALM      29.88F
$$

MTZ009-010-012-014-046-048-049-054-270500-
EAST SLOPES AND CENTRAL MONTANA

CITY           SKY/WX    TMP DP  RH WIND       PRES   REMARKS
CUT BANK       CLOUDY    43  23  45 W10       29.80F
GREAT FALLS    CLOUDY    46  20  35 NE9       29.80F
MALMSTROM AFB  CLOUDY    46  19  33 N6        29.81S
HELENA         CLOUDY    51  23  33 W9        29.80R
AUGUSTA        MOCLDY    42  23  46 N5        29.80F
BOWMANS CRNR   MOCLDY    45  22  41 N3        29.79S
CHOTEAU          N/A     46  16  29 E14       29.82F
CONRAD           N/A     40  31  70 W2        29.85S
FAIRFIELD      MOCLDY    46  19  33 E5        29.80S
POWER          MOCLDY    44  14  30 E8        29.81R
RAYNESFORD     MOCLDY    45  17  32 E6        29.81F
$$

MTZ011-013-016-021-045-047-050-051-270500-
NORTH CENTRAL MONTANA

CITY           SKY/WX    TMP DP  RH WIND       PRES   REMARKS
HAVRE          MOCLDY    40  23  50 E7        29.83S
LEWISTOWN      CLOUDY    43  25  49 SE10      29.84R
N BAR RANCH      N/A     39  23  52 SW6       29.87S
CHINOOK          N/A     41  21  45 CALM      29.85S
DENTON         MOCLDY    44  25  47 E9        29.80S
FORT BENTON      N/A     46  21  36 MISG      29.83S
GEYSER         MOCLDY    43  17  34 SE9       29.82S
GRASS RANGE    MOCLDY    41  27  56 W3        29.82F
STANFORD       MOCLDY    41  19  41 CALM      29.83S
WINIFRED         N/A     39  27  61 SE12      29.83S WCI  32
$$

MTZ017>020-022>027-061-062-270500-
NORTHEAST MONTANA

CITY           SKY/WX    TMP DP  RH WIND       PRES   REMARKS
GLASGOW        CLEAR     40  24  53 NE10      29.87S
JORDAN           N/A     43  26  51 E7        29.86S
SIDNEY         CLEAR     42  26  53 N7        29.90R
WOLF POINT     PTCLDY    37  28  70 CALM      29.89S
MALTA          MOCLDY    37  27  65 E3        29.87S
PLENTYWOOD       N/A     45  23  42 CALM      29.89S
POPLAR           N/A     43  25  49 NE6       29.89S
SCOBEY           N/A     32  17  54 CALM      29.88S
$$

MTZ028>42-056>058-270500-
SOUTHCENTRAL AND SOUTHEAST MONTANA

CITY           SKY/WX    TMP DP  RH WIND       PRES   REMARKS
BAKER          CLOUDY    42  34  73 E3        29.89S
BILLINGS       CLOUDY    51  29  42 E5        29.83F
LIVINGSTON     CLOUDY    49  19  30 SW23      29.83S
MILES CITY     PTCLDY    48  30  49 S6        29.86S
BIG TIMBER     PTCLDY    46  23  39 W8        29.86S
EKALAKA          N/A     43  34  70 E3        29.89S
FORSYTH          N/A     45  32  61 SE3       29.85S
HARLOWTON      MOCLDY    43  27  52 CALM      29.82S
LAUREL           N/A     48  27  44 N3        29.83S
$$

REGIONAL REPORTS...DAKOTAS

CITY           SKY/WX    TMP DP  RH WIND       PRES   REMARKS
WILLISTON      MOCLDY    38  27  64 N8        29.90R
MINOT          CLOUDY    42  38  85 E9        29.88S
DICKINSON      CLOUDY    44  30  57 S7        29.87S
BEACH            N/A    N/A N/A N/A MISG        N/A
TIOGA          MOCLDY    37  37 100 W6        29.91R
WATFORD CITY     N/A     39  34  81 CALM      29.89S
BISMARCK       CLEAR     39  34  82 SE7       29.92R
GRAND FORKS    CLOUDY    40  39  97 E5        29.95S
FARGO          CLOUDY    36  35  96 CALM      29.94S
BUFFALO SD       N/A     43  37  79 W5        29.85S
RAPID CITY     CLEAR     32  31  96 CALM      29.94R
$$

REGIONAL REPORTS...WYOMING/IDAHO/WASHINGTON

CITY           SKY/WX    TMP DP  RH WIND       PRES   REMARKS
GILLETTE       CLOUDY    39  34  82 S7        29.90S
SHERIDAN       CLOUDY    42  33  70 S5        29.87S
BUFFALO WY     CLOUDY    43  31  62 W6        29.90S
CODY           CLOUDY    46  22  38 VRB5      29.88R
YELLOWSTONE LA   N/A     29  23  78 CALM      29.96S
IDAHO FALLS    CLOUDY    42  37  82 S9        29.94S
SALMON         CLOUDY    46  30  53 SE13      29.83S
BOISE          CLOUDY    49  34  56 SE10      29.87S
SPOKANE        LGT RAIN  42  39  89 S3        29.81S
$$

REGIONAL REPORTS...ALBERTA

CITY           SKY/WX    TMP DP  RH WIND       PRES   REMARKS
EDMONTON       CLEAR     34  28  80 SE5       29.79S
CALGARY        MOCLDY    41  18  38 CALM      29.72S
LETHBRIDGE     CLOUDY    41  21  45 S9        29.78S
MEDICINE HAT   PTCLDY    37  21  52 CALM      29.80F
WATERTON GATE    N/A     39  25  56 W8          N/A
CARDSTON         N/A     41  21  45 S5          N/A
MILK RIVER       N/A     37  21  52 NW2         N/A
$$

REGIONAL REPORTS...SASKATCHEWAN

CITY           SKY/WX    TMP DP  RH WIND       PRES   REMARKS
SWIFT CURRENT  MOCLDY    36  30  80 E7        29.85S WCI  30
REGINA         CLEAR     32  30  93 N8        29.87R WCI  25
SASKATOON      CLOUDY    30  27  86 E8        29.95S WCI  23
VAL MARIE        N/A     28  23  80 NE1         N/A
ROCKGLEN         N/A     37  18  44 W5          N/A
ASSINIBOIA       N/A     36  32  87 SE6         N/A  WCI  31
$$




USA.gov is the U.S. government's official web portal to all federal, state and local government web resources and services.